OZ1IEP-5 Weather Reports


time (UTC)temp
C
wind
direction
speed
KPH
gust
KPH
rain 1hr
cm
rain 24hr
cm
rain mn
cm
humidity
%
barometer
mb
20260831155005 16 151 0.0 0.0 0.23 0.66 0.66 87 1005.1
20260831154005 17 151 0.0 0.0 0.23 0.66 0.66 87 1005.0
20260831153008 17 144 0.0 4.8 0.23 0.64 0.64 86 1005.0
20260831152006 18 201 0.0 1.6 0.15 0.58 0.58 85 1005.4
20260831151005 18 217 0.0 4.8 0.10 0.51 0.51 83 1005.4
20260831150007 18 202 0.0 8.0 0.08 0.51 0.51 80 1005.4
20260831145006 19 237 1.6 8.0 0.00 0.43 0.43 76 1005.5
20260831144006 20 229 0.0 4.8 0.00 0.43 0.43 76 1005.2
20260831143008 20 231 0.0 8.0 0.00 0.43 0.43 77 1005.3
20260831142005 21 226 1.6 16.1 0.00 0.43 0.43 74 1005.3
20260831141005 21 209 0.0 9.7 0.00 0.46 0.43 73 1005.2
20260831140007 21 216 0.0 4.8 0.00 0.61 0.43 74 1005.1
20260831135006 21 220 1.6 11.3 0.00 0.76 0.43 75 1005.1
20260831134005 21 237 1.6 8.0 0.00 0.81 0.43 76 1005.1
20260831133008 21 205 0.0 19.3 0.00 0.81 0.43 76 1005.1
20260831132006 21 236 1.6 14.5 0.00 0.81 0.43 77 1005.1
20260831131005 21 204 0.0 11.3 0.00 0.81 0.43 80 1005.1
20260831130008 20 181 1.6 11.3 0.00 0.81 0.43 82 1005.1
20260831125006 20 201 0.0 11.3 0.00 0.81 0.43 82 1005.1
20260831124006 20 161 0.0 14.5 0.00 0.81 0.43 83 1005.1
20260831123008 20 176 1.6 14.5 0.00 0.81 0.43 85 1004.9
20260831122005 20 182 1.6 16.1 0.00 0.84 0.43 88 1005.0
20260831121006 19 168 6.4 19.3 0.00 0.84 0.43 89 1005.0
20260831120009 18 152 1.6 9.7 0.00 0.84 0.43 90 1005.1
20260831115006 18 167 1.6 20.9 0.00 0.84 0.43 91 1005.1
20260831114005 18 161 9.7 20.9 0.03 0.84 0.43 92 1005.1
20260831113008 18 160 8.0 24.1 0.03 0.84 0.43 92 1005.1
20260831112006 18 155 14.5 25.7 0.03 0.84 0.43 93 1005.1
20260831111006 17 125 9.7 20.9 0.03 0.86 0.43 93 1005.1
20260831110008 17 139 8.0 20.9 0.05 0.86 0.43 93 1005.1
20260831105005 17 158 9.7 20.9 0.08 0.86 0.43 93 1005.1
20260831104005 17 152 9.7 20.9 0.33 0.84 0.41 93 1005.5
20260831103008 17 166 9.7 24.1 0.33 0.86 0.41 93 1005.5
20260831102006 17 159 9.7 20.9 0.33 0.91 0.41 93 1005.2
20260831101006 17 159 8.0 20.9 0.33 0.99 0.41 93 1005.4
20260831100008 17 219 0.0 4.8 0.30 0.94 0.36 93 1005.2
20260831095005 17 293 3.2 19.3 0.28 0.91 0.33 94 1005.5
20260831094006 17 148 9.7 19.3 0.03 0.66 0.08 94 1005.6
20260831093008 17 137 6.4 14.5 0.00 0.64 0.05 94 1005.7
20260831092006 17 136 8.0 19.3 0.00 0.64 0.05 94 1005.6
20260831091006 17 150 9.7 16.1 0.00 0.64 0.05 94 1005.9
20260831090008 16 156 4.8 16.1 0.00 0.64 0.05 94 1006.0
20260831085006 16 157 4.8 14.5 0.00 0.64 0.05 94 1006.2
20260831084006 16 149 8.0 16.1 0.00 0.64 0.05 94 1006.2
20260831083007 16 156 8.0 19.3 0.03 0.64 0.05 94 1006.2
20260831082005 16 143 8.0 19.3 0.05 0.66 0.05 94 1006.2
20260831081005 16 138 8.0 16.1 0.05 0.66 0.05 94 1006.2
20260831080008 16 137 8.0 19.3 0.05 0.66 0.05 94 1006.2
20260831075005 16 157 9.7 14.5 0.05 0.66 0.05 94 1006.2
20260831074006 16 131 8.0 14.5 0.05 0.66 0.05 94 1006.2
20260831073007 15 143 3.2 11.3 0.05 0.64 0.05 94 1006.2
20260831072006 15 158 4.8 14.5 0.03 0.61 0.03 94 1006.6
20260831071005 15 159 8.0 11.3 0.00 0.61 0.00 94 1006.6
20260831070008 15 136 4.8 9.7 0.00 0.61 0.00 94 1006.5
20260831065005 15 148 4.8 12.9 0.00 0.61 0.00 94 1006.6
20260831064005 15 143 6.4 14.5 0.00 0.61 0.00 94 1006.4
20260831063007 15 145 6.4 11.3 0.00 0.61 0.00 94 1006.3
20260831062005 15 124 4.8 8.0 0.00 0.61 0.00 94 1006.2
20260831061006 14 147 3.2 9.7 0.00 0.61 0.00 94 1006.2
20260831060007 14 140 4.8 8.0 0.00 0.61 0.00 94 1006.5
20260831055005 13 144 4.8 9.7 0.00 0.61 0.00 94 1006.7
20260831054006 13 143 4.8 9.7 0.00 0.61 0.00 94 1006.7
20260831053009 13 129 4.8 9.7 0.00 0.64 0.00 94 1006.7
20260831052005 13 139 3.2 8.0 0.00 0.69 0.00 94 1006.7
20260831051005 13 148 3.2 4.8 0.00 0.71 0.00 94 1006.7
20260831050008 13 152 3.2 8.0 0.00 0.71 0.00 93 1006.7
20260831045005 13 159 4.8 8.0 0.00 0.71 0.00 93 1006.9
20260831044005 13 150 4.8 8.0 0.00 0.71 0.00 93 1007.1
20260831043008 13 160 1.6 4.8 0.00 0.71 0.00 93 1007.0
20260831042006 13 182 0.0 0.0 0.00 0.71 0.00 93 1007.0
20260831041006 13 183 0.0 3.2 0.00 0.71 0.00 93 1007.1
20260831040009 13 184 0.0 1.6 0.00 0.71 0.00 93 1006.9
20260831035006 13 179 0.0 1.6 0.00 0.71 0.00 93 1006.9
20260831034006 13 181 0.0 3.2 0.00 0.71 0.00 93 1007.0
20260831033009 13 176 0.0 0.0 0.00 0.71 0.00 93 1007.0
20260831032006 13 183 0.0 0.0 0.00 0.71 0.00 93 1007.1
20260831031006 13 195 0.0 0.0 0.00 0.71 0.00 93 1007.2
20260831030012 13 172 0.0 1.6 0.00 0.71 0.00 93 1007.2
20260831025007 14 169 0.0 4.8 0.00 0.71 0.00 93 1007.3
20260831024006 14 172 0.0 1.6 0.00 0.71 0.00 93 1007.3
20260831023009 14 172 0.0 3.2 0.00 0.71 0.00 93 1007.2
20260831022006 14 188 0.0 0.0 0.00 0.71 0.00 93 1007.3
20260831021006 14 205 0.0 0.0 0.00 0.71 0.00 93 1007.3
20260831020009 14 171 0.0 1.6 0.00 0.71 0.00 93 1007.5
20260831015006 14 204 0.0 1.6 0.00 0.71 0.00 93 1007.5
20260831014006 14 179 0.0 0.0 0.00 0.71 0.00 93 1007.4
20260831013009 14 171 0.0 3.2 0.00 0.71 0.00 93 1007.5
20260831012006 14 179 0.0 1.6 0.00 0.71 0.00 93 1007.4
20260831011006 14 176 0.0 1.6 0.00 0.71 0.00 93 1007.5
20260831010010 14 170 0.0 4.8 0.00 0.71 0.00 92 1007.4
20260831005006 14 164 0.0 4.8 0.00 0.71 0.00 92 1007.5
20260831004006 14 175 0.0 0.0 0.00 0.71 0.00 92 1007.5
20260831003009 14 170 0.0 0.0 0.00 0.71 0.00 92 1007.4
20260831002006 14 173 0.0 0.0 0.00 0.71 0.00 92 1007.4
20260831001006 14 181 0.0 0.0 0.00 0.71 0.00 92 1007.5
20260831000009 15 176 0.0 0.0 0.00 0.71 0.00 91 1007.6
20260830235006 15 167 0.0 0.0 0.00 0.71 0.00 91 1007.3
20260830234006 15 170 0.0 0.0 0.00 0.71 0.00 91 1007.4
20260830233008 15 186 0.0 0.0 0.00 0.71 0.00 91 1007.3
20260830232006 15 201 0.0 0.0 0.00 0.71 0.00 91 1007.3
20260830231006 15 197 0.0 0.0 0.00 0.71 0.00 91 1007.3
20260830230008 15 181 0.0 0.0 0.00 0.71 0.00 91 1007.3
20260830225006 15 180 0.0 0.0 0.00 0.71 0.00 90 1007.4
20260830224007 15 203 0.0 0.0 0.00 0.71 0.00 89 1007.3
20260830223009 15 224 0.0 0.0 0.00 0.71 0.00 89 1007.3
20260830222006 15 224 0.0 3.2 0.00 0.71 0.00 89 1007.3
20260830221006 16 227 0.0 1.6 0.00 0.71 0.00 89 1007.4
20260830220009 16 223 0.0 0.0 0.00 0.71 0.00 89 1007.3
20260830215006 16 228 0.0 1.6 0.00 0.71 0.71 89 1007.3
20260830214006 16 205 0.0 4.8 0.00 0.71 0.71 89 1007.3
20260830213008 16 218 0.0 9.7 0.00 0.71 0.71 89 1007.3
20260830212006 16 219 0.0 3.2 0.00 0.71 0.71 89 1007.3
20260830211006 16 220 0.0 14.5 0.00 0.71 0.71 89 1007.2
20260830210009 16 221 0.0 9.7 0.00 0.71 0.71 89 1007.2
20260830205006 16 230 0.0 16.1 0.00 0.71 0.71 89 1007.2
20260830204006 16 221 1.6 16.1 0.00 0.71 0.71 90 1007.2
20260830203009 16 231 1.6 16.1 0.00 0.71 0.71 90 1007.2
20260830202006 16 224 0.0 9.7 0.00 0.71 0.71 90 1007.0
20260830201006 16 215 0.0 8.0 0.00 0.71 0.71 90 1007.0
20260830200009 16 219 0.0 11.3 0.00 0.71 0.71 90 1006.9
20260830195006 16 223 0.0 14.5 0.00 0.71 0.71 90 1006.8
20260830194005 16 223 1.6 19.3 0.00 0.71 0.71 90 1006.7
20260830193008 16 224 1.6 9.7 0.00 0.71 0.71 91 1006.7
20260830192006 16 221 1.6 8.0 0.00 0.71 0.71 91 1006.5
20260830191006 16 239 1.6 9.7 0.00 0.71 0.71 90 1006.2
20260830190018 16 236 0.0 3.2 0.00 0.71 0.71 90 1006.2
20260830185006 16 223 0.0 4.8 0.00 0.71 0.71 90 1006.1
20260830184006 16 251 0.0 3.2 0.00 0.71 0.71 90 1006.0
20260830183008 16 212 0.0 1.6 0.00 0.71 0.71 91 1005.7
20260830182005 17 227 0.0 1.6 0.00 0.71 0.71 91 1005.6
20260830181006 17 231 0.0 4.8 0.00 0.71 0.71 92 1005.6
20260830180007 17 233 0.0 3.2 0.00 0.71 0.71 92 1005.3
20260830175005 17 231 0.0 4.8 0.00 0.71 0.71 92 1005.1
20260830174005 17 203 0.0 1.6 0.00 0.71 0.71 92 1005.0
20260830173007 17 253 0.0 22.5 0.00 0.71 0.71 92 1004.7
20260830172006 17 284 0.0 14.5 0.00 0.71 0.71 91 1004.6
20260830171005 17 262 0.0 14.5 0.00 0.71 0.71 91 1004.5
20260830170007 17 261 0.0 9.7 0.00 0.71 0.71 92 1004.2
20260830165005 17 284 0.0 11.3 0.00 0.71 0.71 92 1004.0
20260830164006 17 239 0.0 8.0 0.00 0.71 0.71 92 1003.6
20260830163008 18 247 0.0 4.8 0.00 0.71 0.71 92 1003.5
20260830162005 18 301 0.0 3.2 0.00 0.71 0.71 92 1003.2
20260830161006 18 250 0.0 14.5 0.00 0.71 0.71 92 1003.0
20260830160009 18 240 0.0 11.3 0.00 0.71 0.71 92 1002.9